Location: Poughquag
(41.6090°N, 73.6820°W)
Time: 12:04:49
(UTC-04:00)

S-56A Canister/Altair - Pass Details

Date: 07 June 2020
Orbit: 633 x 2499 km, 38.9° (Epoch: 06 July)

Event Time Altitude Azimuth Distance (km) Brightness Sun altitude
Rises 07:31:52 0° 277° (W) 3,499 10.4 21.8°
Reaches altitude 10° 07:34:06 10° 272° (W) 2,732 9.9 22.2°
Maximum altitude 07:40:31 53° 197° (SSW) 1,530 9.2 23.4°
Drops below altitude 10° 07:50:15 10° 125° (SE) 4,065 12.0 25.2°
Sets 07:54:18 0° 121° (ESE) 5,348 12.6 26.0°
